Погода в Лаукуве

Погода в Лаукуве : погода сейчас, прогноз погоды и архив. Всё, что Вы хотите узнать о погоде в Лаукуве!

Поиск расширенной информации на нашем сайте:

Другие новости

Новости СМИ2

Главная страница сайта

Новости сайта

03.07.2017

Напоминаем, что на нашем специализированном сайте Метеоцентр.Азия вы можете получить высокодетализированные автоматические прогнозы погоды по пунктам России, СНГ и мира в авиационном формате (включающие направление и скорость ветра, видимость, явления погоды, количество и форму облачности, нижнюю и верхнюю границу облачности).

Рекомендуем: монтаж система вентиляции торгового центра

Погода в Лаукуве - сегодня

Время (UTC), дата Ветер
(°,м/с) 
Видим.   Явления Облачность Т
(°С)
Тd
(°С)
f(%) Тe
(°С)
Pmin
(гПа)
dP
(гПа)
Po
(мм)
O2
(г/м3)
Тmin Tmax R s Состояние
почвы
15 11.11.18 140 (ЮВ) 7-12{14}  6000 м  дымка  10/10 150 м 
[St]
+3.3 +2.9 97 1021  0.5  750  298           
18 11.11.18 150 (ЮВ) 8-12{13}  5000 м  дымка  10/10 120 м 
[St]
+3.3 +3 98 1021.6  0.5  751  298    +3.9       
00 12.11.18 150 (ЮВ) 7-10{12}  0500 м  слаб. морось{туман}  ?/?  
+4.5 +4.4 99 +2  1021.7  0.1  751  297      0.0     
03 12.11.18 150 (ЮВ) 6-9{11}  0300 м  туман{морось}  ?/?  
+4.5 +4.4 99 +2  1022.3  0.6  751  297           
06 12.11.18 150 (ЮВ) 6-9{11}  0800 м  туман{морось}  ?/?  
+4.5 +4.4 99 +2  1023.5  752  297  +3.3    0.2    влажная 
09 12.11.18 160 (Ю) 7-11{11}  0400 м  туман{морось}  ?/?  
+4.4 +4.3 99 +1  1024  0.5  752  298           
12 12.11.18 150 (ЮВ) 7-10{11}  0700 м  туман{морось}  ?/?  
+4.5 +4.4 99 +2  1024.4  0.3  753  298      0.0     
15 12.11.18 150 (ЮВ) 7-10{11}  0400 м  слаб. морось{туман}  ?/?  
+4.2 +4 99 +1  1024.1  -0.3  753  298           
18 12.11.18 150 (ЮВ) 7-10{11}  0500 м  слаб. дождь{морось}  ?/?  
+4.2 +4 99 +1  1024  0.1  752  298    +4.6  0.2     
21 12.11.18 150 (ЮВ) 8-11{11}  1800 м  в посл. час туман{дождь}  10/10 60 м 
[St]
+4.4 +4.2 99 +1  1022.8  -1.1  752  297           
00 13.11.18 160 (Ю) 8-11{12}  2700 м  дымка{дождь, туман}  10/10 120 м 
[St]
+5.1 +5 99 +2  1021.6  -1.1  751  296      0.0     
03 13.11.18 170 (Ю) 6-11{11}  2500 м  дымка  10/10 120 м 
[St]
+5.9 +5.8 99 +4  1020.7  -0.8  750  295           
06 13.11.18 180 (Ю) 7-11{12}  2200 м  слаб. дождь  10/10 120 м 
[Frnb|Ns]
+6.4 +6.1 98 +4  1019.7  -0.9  749  294  +4.1    0.4    влажная 
09 13.11.18 190 (Ю) 6-10{12}  2500 м  в посл. час дождь  10/10 120 м 
[Frnb|Ns]
+7 +6.8 99 +5  1019.9  0.2  750  293           
12 13.11.18 200 (Ю) 5-7  1900 м  слаб. дождь  10/10 100 м 
[Frnb|Ns]
+7.4 +7.2 99 +6  1019.2    749  293         
15 13.11.18 200 (Ю) 4-7{08}  2200 м  слаб. дождь  10/10 100 м 
[Frnb|Ns]
+7.4 +7.2 99 +6  1018.3  -0.7  749  292           
18 13.11.18 230 (ЮЗ) 2-4{07}  2500 м  слаб. дождь  10/10 60 м 
[Frnb|Ns]
+7.4 +7.3 99 +7  1017.7  -0.6  748  292    +7.5     
21 13.11.18 280 (З) 3-5{05}  4900 м  слаб. дождь  10/10 100 м 
[Frnb|Ns]
+8 +7.9 99 +7  1017.8  0.1  748  291           
00 14.11.18 310 (СЗ) 2-4{06}  17000 м  слаб. дождь  10/10 180 м 
[Frnb|Ns]
+7.5 +7.4 99 +7  1018.4  0.6  749  292         
03 14.11.18 250 (З) 2-3{06}  11000 м  {дождь}  10/10 60 м 
[St]
+6.7 +6.5 99 +7  1018.7  0.2  749  293           
06 14.11.18 290 (З) 1-2{04}  1200 м  слаб. дождь{туман}  10/10 60 м 
[Frnb|Ns]
+7.2 +7.1 99 +8  1020  1.3  750  293  +6.6      мокрая 
09 14.11.18 300 (СЗ) 2-4{04}  8000 м  дымка{дождь, туман}  10/10 330 м 
[Sc]
+8 +7.8 99 +8  1021.4  1.4  751  293           
12 14.11.18 320 (СЗ) 2-3{06}  15000 м  {дождь, туман}  9/9 300 м 
[Sc]
+8.7 +7.6 93 +9  1022.8  1.5  752  292      0.0     
15 14.11.18 300 (СЗ) 2-3{05}  13000 м    6/4 210 м средняя 
[Sc|Ac trans]
+7.2 +6.6 96 +7  1024.7  1.7  753  295           
18 14.11.18 300 (СЗ) 1-2{04}  0100 м  туман  ?/?  
+5.7 +5.6 99 +7  1026.2  1.4  754  297    +8.9  0.0     
Время (UTC), дата Ветер
(°,м/с) 
Видим.   Явления Облачность Т
(°С)
Тd
(°С)
f(%) Тe
(°С)
Pmin
(гПа)
dP
(гПа)
Po
(мм)
O2
(г/м3)
Тmin Tmax R s Состояние
почвы

Для получения пояснительной информации подведите курсор к названию столбца.

ПОГОДА в Лаукуве - архив

Всё, что Вы хотите узнать о погоде в Лаукуве - удобно и подробно!

Выберите нужную дату (начиная с 1 января 2015* года) и нажмите кнопку "Найти".
Будут отображены архивные сводки погоды по пункту Лаукува, начиная с указанной даты.


Отображать данные в формате CSV (для использования в таблицах Excel)


Внимание! Наш архив погоды предназначен исключительно для личного некоммерческого использования в познавательных целях. Если Вам необходимы официальные справки о состоянии погоды (для производственных, юридических, коммерческих и т.п. целей), обращайтесь в органы Росгидромета.

*Примечание: данная дата относится к архиву по метеостанциям СССР (Россия, СНГ, Балтия).
Архив по метеостанциям Зарубежной Европы и Азии (кроме Китая) хранится 10 дней, по другим регионам земного шара (Китай, Африка, Америка, Австралия, Океания) - 1 день.

Лаукува - район местоположения метеостанции


Название, широта, долгота, высота метеостанции:
Лаукува 55.6°ш. 22.2°д. 166 м над ур. моря [Литва]

Дополнительная информация

В oтличие oт бoльшинства пoгoдных сайтoв мы публикуем пoдрoбную метеoинфoрмацию в детальнoм прoфессиoнальнoм фoрмате.

Характеристики температуры и влажнoсти вoздуха измеряются на высoте 2 м в тени вдали oт зданий и деревьев.
Скoрoсть ветра измеряется на высoте 10 м (на урoвне рoста челoвека скoрoсть ветра ниже в 1.5-2 раза). Если метеoстанция нахoдится в гoрoде или в лесу, тo скoрoсть ветра занижена на 2-4 м/с пo сравнению с oткрытым местoм. Скoрoсть ветра над акватoриями крупных рек и oзёр, а также на вершинах хoлмoв на 2-5 м/с выше, чем в oбычных услoвиях.
Атмoсфернoе давление в разных тoчках местнoсти мoжет значительнo oтличаться oт давления на метеoстанции, в зависимoсти oт услoвий рельефа (при пoдъёме на 10 м давление пoнижается примернo на 1 мм рт.ст.).